Theta_e
319 319 321 323 324 325 330 331 338 341 338 340 341 339 335 334 337 337 336 334 330 329 327 321 319 323 326 324 320 317 314 317 318 316 316 314 315 318 318 319 319 318 318 317 317 317 317 317 316 316 315 314 314 314 314 315 314 314 314 314 314 314 314 314 313 313 313 313 313 313 313 313 312 312 312 312 312 312 313 312 313 313 313 313 313 314 314 314 314 314 313 313 311 310 310 308 307
317 318 321 323 325 327 332 335 341 339 338 340 339 338 335 334 335 339 339 338 334 326 323 318 317 318 319 317 316 319 316 312 311 312 314 314 318 318 318 319 318 318 317 316 316 316 316 316 315 315 314 315 315 315 314 314 314 314 313 313 313 313 313 312 312 312 312 312 312 312 312 311 311 311 311 310 310 310 310 311 311 311 311 312 312 312 313 313 313 313 313 312 310 309 309 307 306
317 319 323 324 325 328 333 336 341 339 338 342 341 338 335 335 336 340 339 337 335 325 324 324 321 317 319 319 316 319 316 312 311 311 314 317 317 317 319 318 318 317 315 315 315 315 315 315 315 314 314 314 314 314 313 313 313 313 313 312 312 312 312 311 311 311 310 310 310 310 310 310 310 310 310 309 309 309 309 309 309 310 310 310 310 310 311 311 312 312 312 311 309 307 307 306 306
319 321 322 324 327 333 337 336 341 340 340 342 342 341 339 338 338 339 334 332 331 326 326 326 318 311 315 316 312 316 313 311 311 312 314 316 316 317 318 317 317 316 315 315 314 315 314 314 314 314 314 313 313 312 312 312 312 312 311 311 311 311 311 310 310 309 308 308 308 308 308 308 308 308 308 307 308 308 308 307 307 307 308 308 308 308 308 308 309 310 310 309 307 306 306 306 305
322 322 321 325 331 336 339 337 339 339 343 344 341 346 345 340 341 337 328 328 328 328 328 325 318 309 310 310 311 315 311 309 310 312 314 314 317 317 317 317 316 315 314 314 314 314 313 313 313 313 313 312 312 312 311 311 311 311 310 310 310 310 310 309 309 308 307 306 306 306 306 306 306 306 306 306 306 306 306 306 306 306 306 307 307 307 307 306 306 307 307 307 306 306 306 305 305
324 323 324 326 328 331 336 336 338 340 345 346 342 346 344 340 339 333 325 325 326 324 324 322 316 311 310 308 310 312 308 309 310 313 315 315 317 316 317 316 315 314 313 313 314 313 313 313 312 313 312 311 311 311 311 310 310 309 309 309 309 308 308 307 307 306 306 306 306 305 305 305 305 305 305 305 305 305 305 305 305 305 305 305 305 305 305 305 305 305 305 305 305 306 305 305 304
324 326 330 331 329 332 338 339 342 345 343 341 341 339 338 338 331 328 324 323 323 318 317 315 312 313 312 308 310 311 310 310 310 314 315 314 316 316 315 314 314 313 313 313 313 312 312 311 312 313 312 311 311 310 310 309 308 308 308 307 307 307 306 306 305 305 305 304 304 304 304 304 304 304 304 303 303 303 304 305 304 305 304 304 304 304 304 304 304 305 304 305 305 305 304 304 304
325 331 334 338 336 334 338 341 342 342 337 333 335 331 331 333 325 325 325 323 323 315 314 313 311 315 312 310 312 311 311 312 313 315 315 314 315 314 314 313 313 312 313 312 312 312 311 311 311 312 311 310 309 309 308 308 308 307 307 306 306 305 305 304 304 303 303 303 303 303 303 304 304 303 303 303 302 302 302 303 304 304 304 304 304 304 304 303 304 304 304 304 304 304 304 304 303
324 328 329 334 336 332 334 339 336 331 331 325 320 320 323 328 325 325 323 320 318 311 310 311 312 316 312 311 313 309 310 313 314 314 314 314 313 312 313 312 312 312 312 311 311 311 311 311 311 311 310 309 309 308 308 307 307 306 306 305 305 305 304 304 303 303 303 303 303 303 303 304 304 303 303 302 302 302 302 303 303 304 303 303 303 303 303 303 303 303 303 303 303 304 303 303 303
320 324 327 328 330 330 332 335 332 324 323 318 312 312 316 323 324 322 319 314 311 309 307 308 311 313 311 310 311 309 309 312 313 312 312 313 312 312 311 311 311 311 311 310 310 310 310 310 310 310 309 308 307 306 306 306 306 306 305 305 304 304 304 303 303 303 303 304 303 303 303 303 303 303 303 302 302 301 301 302 303 303 303 303 303 303 303 303 303 303 303 303 303 303 302 302 301
320 323 326 325 325 329 333 335 333 324 317 316 313 310 312 317 318 316 315 311 309 310 307 307 311 310 311 310 308 308 309 312 312 310 310 311 311 311 311 311 311 310 310 310 310 310 309 309 308 308 307 307 306 306 306 305 305 305 304 303 303 303 303 303 303 303 303 303 303 303 303 303 303 302 302 302 301 301 301 302 303 303 302 302 302 302 302 303 302 302 302 302 302 302 301 300 299
321 325 325 328 330 329 333 334 329 325 317 314 312 309 309 309 310 309 308 307 306 308 305 306 311 310 312 310 306 307 309 311 310 310 310 310 310 310 310 310 310 309 309 309 309 309 308 308 307 306 305 304 304 303 303 303 302 302 302 302 302 303 303 302 302 302 301 301 300 300 301 303 302 301 301 301 301 300 300 301 302 302 302 302 301 301 301 302 302 302 302 302 301 301 300 299 298
321 327 328 328 332 329 328 328 323 322 317 311 308 305 305 304 305 304 304 305 304 305 305 306 309 309 310 308 305 305 307 309 309 310 309 309 309 309 309 308 308 308 308 308 309 308 307 306 304 302 299 299 300 301 301 301 301 301 301 301 301 301 300 300 299 298 298 297 297 297 299 301 300 299 299 299 299 299 299 300 301 301 301 301 301 301 301 301 301 301 301 301 300 300 299 297 296
319 327 328 322 326 326 323 322 320 319 313 308 306 302 302 302 302 302 303 306 305 304 303 305 307 309 310 307 304 302 304 308 309 309 309 308 308 308 307 307 307 307 307 307 307 306 304 302 299 297 295 297 300 301 302 302 301 300 299 299 299 298 297 297 296 296 296 296 296 296 297 298 298 296 295 295 296 295 295 296 299 300 300 300 300 299 299 300 300 300 299 299 298 297 297 295 294
318 331 328 319 321 321 320 318 317 316 309 304 303 301 300 300 301 302 302 305 305 302 302 305 304 307 312 308 304 302 304 307 308 308 308 307 307 306 306 306 305 305 306 305 305 304 303 300 297 296 296 299 301 302 303 302 301 298 297 297 296 296 296 295 295 295 295 295 295 295 295 295 295 294 293 294 293 293 293 293 295 298 298 299 299 297 298 299 299 299 298 298 297 295 293 291 291
322 333 325 318 319 317 317 313 313 314 307 302 301 301 301 300 301 302 301 303 303 300 300 301 300 303 307 305 303 303 305 307 307 307 306 305 304 304 304 303 303 303 303 303 303 302 302 300 299 298 298 299 301 302 302 301 301 298 296 296 295 295 294 294 294 294 294 294 294 294 294 293 293 293 293 293 292 292 292 292 292 294 295 296 296 294 295 297 297 297 297 297 295 293 291 290 290
322 326 320 318 320 316 312 311 314 313 305 302 302 302 302 300 301 300 300 301 301 298 297 297 296 297 298 299 301 303 305 303 303 304 303 302 301 300 299 299 300 299 300 300 300 300 300 299 299 300 299 299 300 300 300 299 299 297 295 295 294 294 293 293 293 293 293 293 293 293 293 292 292 292 292 291 291 290 290 290 290 291 292 292 293 291 292 294 294 294 294 294 293 291 290 290 289
319 320 319 320 322 312 306 309 312 309 303 301 300 300 301 301 300 299 299 298 298 298 296 295 295 294 294 295 298 299 299 297 298 299 297 296 295 294 293 293 294 294 295 296 296 298 298 297 297 298 298 297 297 297 297 296 296 295 294 293 293 292 292 292 292 292 292 292 292 292 292 291 290 290 290 290 289 289 289 289 290 290 291 291 291 291 291 291 291 291 291 291 291 290 290 290 290
322 321 318 320 317 304 301 305 306 304 301 298 298 298 299 299 299 298 297 295 296 297 296 295 294 293 292 293 294 294 294 293 293 294 292 291 291 290 290 290 291 291 291 292 293 294 294 294 295 295 295 295 295 295 294 294 294 293 293 292 291 291 291 291 291 291 291 291 291 290 290 290 290 289 289 289 289 289 289 289 289 289 290 290 290 290 290 290 290 290 290 290 290 290 290 290 290
319 322 317 315 310 302 300 302 301 300 299 298 298 296 296 296 297 297 295 294 294 295 295 294 293 291 291 291 291 291 291 290 290 290 289 289 289 289 289 288 289 289 289 290 291 291 292 292 293 293 293 293 293 293 293 292 292 292 292 291 291 290 290 290 290 290 290 290 290 290 289 289 289 289 288 288 289 289 288 288 288 288 289 289 289 289 289 290 290 290 290 290 290 290 290 290 290
312 317 316 310 305 303 300 299 299 298 298 298 297 297 296 293 294 295 296 298 295 292 293 293 292 290 289 289 289 289 289 289 289 289 288 288 288 288 288 288 288 288 288 290 290 290 291 291 291 292 292 292 292 291 291 291 291 291 290 290 290 290 290 290 290 290 289 289 289 288 288 288 288 288 288 287 287 287 287 287 287 288 288 288 288 288 288 289 289 289 289 289 289 289 289 289 289
309 306 305 304 302 302 299 298 298 297 297 297 297 297 296 292 291 292 294 297 293 290 291 291 290 289 289 288 288 288 288 288 288 288 287 287 287 287 287 287 287 288 289 289 289 289 290 290 290 290 290 290 290 290 290 290 290 290 290 290 290 290 289 289 289 289 288 288 287 288 288 288 288 288 287 287 286 286 286 286 286 286 286 286 287 287 287 287 287 288 288 288 288 288 288 288 288
310 302 299 301 301 300 298 298 297 296 297 297 296 295 293 292 291 289 290 290 289 289 288 289 289 288 288 288 287 287 287 287 287 287 287 287 287 286 286 286 287 287 288 288 288 289 289 289 290 289 290 289 289 289 289 290 289 289 289 289 290 289 288 288 288 287 287 286 286 286 287 287 286 286 286 286 285 285 285 285 285 285 285 285 285 285 286 286 286 286 286 286 286 286 286 286 286
308 302 298 298 298 297 296 296 296 295 295 294 294 293 292 293 292 289 288 288 288 288 287 287 288 287 287 287 287 287 286 286 286 286 286 286 286 286 286 286 286 286 287 287 287 288 288 288 289 289 289 289 289 289 289 289 288 288 288 288 288 287 287 287 286 285 285 285 285 285 285 284 284 284 284 284 283 283 283 283 283 283 284 284 284 284 284 285 285 285 285 285 285 285 285 285 285
305 300 298 297 296 296 295 295 295 294 294 293 292 292 291 291 291 289 288 288 288 287 287 287 287 287 287 286 286 286 286 286 286 286 285 285 285 285 285 285 285 286 286 286 286 287 287 287 288 288 288 288 288 288 289 288 287 287 287 287 286 286 286 285 284 284 284 284 284 283 283 283 282 282 282 282 282 281 281 282 282 282 282 282 282 282 283 283 283 283 283 283 283 283 283 283 284
304 300 298 297 296 295 295 295 295 294 294 294 293 292 292 291 292 290 288 288 287 287 287 286 286 286 286 286 286 286 286 286 285 285 285 285 285 285 285 285 285 285 285 285 286 286 286 287 288 288 287 287 287 287 287 286 286 286 286 286 285 285 285 284 284 284 283 283 283 282 282 281 281 281 280 280 280 280 280 280 281 281 281 281 281 281 281 281 282 282 282 282 282 282 282 282 282
299 299 297 297 297 296 296 295 296 296 294 294 294 294 293 293 294 292 289 288 287 287 287 286 286 286 286 285 285 286 286 286 286 285 285 284 284 284 284 284 285 285 285 286 286 286 286 287 287 287 286 286 287 287 286 285 285 285 284 284 284 284 283 283 283 283 282 282 281 281 280 280 280 279 279 279 279 279 279 279 279 279 280 280 280 280 280 280 280 280 280 280 280 280 280 280 281
297 299 298 297 297 296 296 296 297 296 295 295 295 295 293 293 293 291 289 289 287 287 287 286 286 286 286 285 285 285 285 285 285 285 284 284 284 284 284 284 285 285 286 286 286 286 286 286 286 286 286 286 286 286 285 285 284 284 283 283 283 282 282 282 281 281 281 280 280 279 279 278 278 278 278 278 278 278 278 278 278 278 278 278 277 277 277 278 278 278 278 278 278 278 278 279 279
299 299 299 298 299 301 298 297 299 298 297 296 296 300 296 292 292 290 289 288 287 287 287 287 286 286 286 285 284 284 285 284 284 284 284 284 283 284 284 284 285 286 286 285 286 286 286 286 286 285 285 285 285 285 284 284 283 283 282 282 281 281 281 280 280 280 279 279 278 278 278 277 277 277 277 277 276 276 277 277 277 276 276 276 276 276 276 276 276 276 276 276 276 277 277 277 278
302 301 301 301 305 306 299 299 301 299 298 295 298 306 299 292 291 290 289 288 287 287 287 287 286 286 286 286 285 284 284 284 284 284 283 283 283 284 284 284 285 286 285 285 285 285 285 285 285 284 284 284 284 283 283 283 282 282 281 281 280 280 279 279 279 278 278 278 278 277 277 276 276 276 276 276 276 276 276 276 275 276 275 275 275 275 275 275 275 275 275 275 275 275 275 276 276
307 304 305 308 310 305 298 299 300 299 299 294 301 311 300 293 292 290 289 288 287 288 287 286 286 286 286 285 285 285 284 284 283 283 283 283 283 284 284 284 285 285 285 285 285 285 284 284 284 284 283 283 283 283 282 282 281 281 281 280 279 279 279 278 277 277 277 277 277 276 276 275 275 275 275 275 275 275 275 275 275 275 275 275 275 275 274 274 274 274 274 274 274 274 274 274 274
313 310 310 311 310 305 299 298 297 300 299 295 303 310 297 294 294 290 290 288 287 288 287 287 286 286 286 285 285 285 284 284 283 283 283 283 283 284 284 284 285 285 285 285 284 284 284 284 283 283 283 283 282 282 282 281 281 280 280 279 279 278 278 277 277 276 276 276 276 276 275 275 275 274 274 274 274 274 274 274 274 275 275 275 275 274 274 273 273 273 273 273 273 273 273 273 273
315 317 315 309 308 307 303 299 295 297 301 299 302 305 297 295 294 290 289 287 287 288 287 287 286 286 286 285 285 285 284 284 283 283 283 283 283 283 284 284 284 284 284 284 284 284 284 283 283 283 283 282 282 282 281 281 280 280 279 279 278 278 277 277 276 276 276 276 276 275 275 275 274 274 274 274 274 274 274 274 274 274 274 274 274 274 273 273 272 272 272 272 272 271 272 272 272
312 315 313 306 306 307 305 304 298 295 302 304 298 298 297 295 293 290 289 287 287 288 287 287 286 286 286 286 285 285 285 285 284 283 283 283 283 283 284 284 284 284 284 284 284 284 283 283 283 283 282 282 282 281 281 281 280 280 279 278 278 277 277 276 276 276 276 275 275 275 274 274 274 274 273 273 273 273 274 274 274 274 274 274 274 273 273 273 272 272 271 271 271 271 271 271 271
310 313 312 306 306 307 306 304 299 296 300 301 297 298 295 292 292 291 289 288 288 288 287 287 287 287 286 286 286 285 285 285 284 284 284 283 283 283 283 283 284 284 284 284 283 283 283 283 283 282 282 282 281 281 281 281 280 280 279 278 277 276 276 276 275 275 275 275 274 274 274 273 273 273 273 273 273 273 273 274 274 274 274 273 273 273 273 272 272 271 271 270 271 270 270 270 271
311 313 313 310 307 305 302 299 297 297 299 297 298 299 295 292 292 291 290 288 288 288 287 287 287 287 287 286 286 286 286 285 284 284 284 284 284 283 283 283 283 283 283 283 283 283 283 283 283 282 282 282 281 281 281 280 280 279 278 278 277 276 275 275 275 275 275 274 274 274 273 273 273 272 272 272 272 273 274 274 274 273 273 273 273 272 272 272 271 271 270 270 270 270 270 270 270
310 310 309 307 305 301 298 298 296 297 301 298 295 296 293 293 292 291 290 288 288 288 287 287 287 287 287 286 286 286 286 285 284 284 284 284 283 283 283 283 283 283 283 283 283 283 283 283 283 282 282 282 281 281 281 280 279 279 278 277 277 276 275 275 275 274 274 274 274 273 273 272 272 272 272 272 272 272 273 273 273 273 273 272 272 272 271 271 271 271 270 270 269 269 269 269 269
307 307 306 304 303 302 298 299 298 296 303 301 294 295 295 293 293 291 290 289 289 288 288 288 287 287 287 286 286 286 285 285 284 284 284 283 283 283 283 283 283 283 283 283 283 283 283 283 283 282 282 282 281 281 280 280 279 278 277 277 276 276 275 274 274 274 274 273 273 273 272 272 272 272 272 272 272 272 272 272 273 272 272 272 271 271 271 270 270 270 270 269 269 268 268 269 269
306 306 309 309 303 302 300 300 299 297 303 302 294 296 297 294 294 293 290 289 289 289 288 288 287 287 287 286 286 286 286 285 285 284 283 283 283 283 283 282 283 283 283 283 283 283 282 282 283 282 282 282 281 281 280 279 279 278 278 277 276 276 275 274 274 273 273 273 273 272 272 272 271 271 271 271 271 271 271 272 272 272 272 271 271 270 270 270 270 269 269 268 268 268 268 268 268
307 307 312 311 302 304 307 302 298 296 299 300 295 297 297 295 295 294 292 290 290 290 288 288 288 287 287 286 286 286 286 286 285 284 283 283 283 283 283 282 283 282 282 282 282 282 283 283 283 283 282 282 281 281 280 279 279 278 278 278 277 276 275 274 274 273 273 273 272 272 272 271 271 271 270 271 271 271 271 271 271 271 271 270 270 270 269 269 269 269 269 268 268 267 267 268 268
307 309 310 307 302 306 307 301 299 297 297 296 296 300 301 297 296 295 293 291 291 291 289 288 288 287 287 287 286 286 286 285 285 284 283 283 283 283 283 283 283 282 282 283 283 283 283 283 283 283 282 282 281 281 280 279 279 278 278 278 277 276 275 274 274 273 273 273 272 272 272 271 271 270 270 270 270 270 270 270 270 270 270 270 269 269 269 269 268 268 268 268 267 267 267 267 267
306 305 307 306 305 306 303 300 302 304 303 298 297 304 307 300 296 296 294 293 293 292 291 290 289 288 287 287 287 286 286 285 285 285 284 283 283 283 283 283 283 283 283 284 284 284 284 284 283 283 282 282 281 280 280 279 279 278 278 277 276 275 274 273 273 273 272 272 272 272 271 271 271 271 270 270 269 269 269 269 269 269 269 269 269 269 269 268 268 268 268 267 267 267 267 267 266
304 300 305 307 307 306 302 302 306 308 306 299 296 303 307 303 301 298 295 294 293 292 292 290 289 288 287 287 287 286 286 286 285 285 284 284 283 282 282 283 283 283 284 284 284 284 284 283 283 283 282 281 281 280 280 279 278 278 277 276 275 274 273 273 272 272 272 272 271 271 271 271 271 270 270 269 269 269 269 269 268 268 268 268 268 269 268 268 267 267 267 267 266 266 266 266 266
301 298 304 306 306 305 302 303 307 306 302 298 296 299 303 306 305 298 294 295 294 293 293 291 290 289 288 288 287 287 287 286 286 285 284 284 283 283 283 283 283 284 285 285 284 284 284 284 283 282 282 281 281 280 279 279 278 278 276 275 275 274 273 273 272 272 272 271 271 271 271 271 270 270 270 269 269 268 268 268 268 268 268 268 268 268 267 267 267 267 266 266 266 266 266 266 266
299 298 300 302 304 304 300 302 306 303 301 303 300 297 303 309 304 295 293 296 296 295 294 292 291 290 289 289 288 287 287 286 286 285 285 284 284 284 283 284 284 285 285 285 285 285 284 284 283 282 281 281 280 280 279 279 278 277 276 275 274 274 273 272 272 272 271 271 271 271 270 270 270 270 270 269 269 268 268 268 268 267 267 267 267 267 267 267 266 266 266 266 266 266 265 266 266
299 299 299 300 302 302 300 302 306 305 304 306 303 299 303 308 305 299 295 297 298 297 295 294 293 291 290 289 289 288 288 287 286 285 285 285 285 285 284 284 285 285 286 286 285 285 284 283 282 281 281 281 280 280 279 278 277 276 276 275 274 274 273 272 272 271 271 271 271 270 270 270 270 270 270 269 269 268 268 267 267 267 267 267 267 267 266 266 266 266 266 266 265 265 265 265 265
298 301 302 299 298 301 303 304 305 305 307 308 304 300 301 303 306 303 300 302 301 298 297 296 294 293 291 290 289 289 288 287 287 286 286 286 285 285 285 284 285 285 286 285 284 284 284 283 282 281 281 281 280 280 279 278 277 276 275 275 274 274 273 272 272 271 271 271 270 270 270 270 270 269 269 269 269 268 268 267 267 267 267 267 266 266 266 266 266 266 265 265 265 265 265 265 265
297 300 300 295 295 299 302 305 304 306 310 307 300 298 299 302 304 302 300 301 300 299 301 299 296 294 292 291 290 289 289 288 287 287 286 286 286 285 284 284 284 285 285 284 284 283 283 283 282 281 281 281 280 279 279 278 277 276 275 275 274 273 273 272 271 271 271 271 270 270 270 269 269 269 269 268 268 268 267 267 267 267 266 266 266 266 266 266 265 265 265 265 265 265 265 265 265
297 301 302 301 301 300 302 306 304 305 307 300 295 297 297 298 301 299 299 299 298 297 298 299 297 295 293 291 291 290 289 289 288 287 287 286 286 285 285 284 284 284 284 284 284 283 283 282 281 281 281 281 280 279 278 277 276 276 275 275 274 273 272 272 271 271 271 270 270 270 269 269 269 269 269 268 268 268 267 267 267 267 266 266 266 266 266 265 265 265 265 265 264 264 265 264 264
297 300 301 303 303 298 300 304 298 298 300 295 293 296 297 299 300 299 298 298 298 296 295 295 296 295 293 292 291 290 290 289 289 288 287 286 286 286 285 285 285 284 285 285 284 284 283 282 281 281 281 281 280 279 278 277 276 276 275 274 273 273 272 272 271 271 271 270 270 270 269 269 269 269 268 268 268 267 267 267 267 266 266 266 266 265 265 265 265 265 264 264 264 264 264 264 264
298 297 296 300 304 299 298 303 300 299 301 297 293 296 303 304 300 299 298 296 295 296 294 293 294 293 292 292 291 290 290 289 289 289 288 287 287 287 286 286 286 285 285 285 284 283 282 282 281 281 281 281 280 279 278 277 277 276 275 274 273 273 272 272 271 271 271 270 270 270 269 269 269 269 268 268 268 267 267 267 266 266 266 266 265 265 265 265 265 264 264 264 264 264 264 264 264
295 294 295 298 301 301 299 299 298 298 301 302 299 299 303 301 298 298 296 295 295 295 294 294 294 294 292 292 291 290 290 289 289 289 288 287 287 287 287 287 286 286 285 285 284 283 283 282 282 281 282 281 281 280 278 277 277 276 275 274 273 273 272 272 271 271 271 270 270 270 269 269 269 268 268 268 267 267 267 266 266 266 266 265 265 265 265 265 264 264 264 264 264 263 263 263 263
293 293 296 295 294 301 301 295 293 294 297 301 299 299 300 297 296 298 295 297 297 295 295 295 295 294 293 293 292 290 290 290 289 289 288 288 288 288 288 287 287 286 286 285 285 285 284 284 283 282 282 281 281 280 279 278 277 275 275 274 273 273 272 272 271 271 271 270 270 269 269 269 268 268 268 268 267 267 267 266 266 266 266 265 265 265 264 264 264 264 264 263 263 263 263 263 263
295 294 296 294 293 298 299 296 297 297 297 297 296 297 297 295 297 300 298 300 301 298 296 295 294 293 293 293 292 291 291 290 290 289 288 288 288 288 288 288 287 287 286 286 286 286 286 285 284 283 282 281 281 280 279 278 276 275 274 274 273 273 272 272 271 271 270 270 269 269 269 268 268 268 268 267 267 267 266 266 266 266 265 265 265 265 264 264 264 264 263 263 263 263 263 263 263
295 295 294 295 297 299 297 296 298 296 294 297 298 297 294 293 298 302 299 301 305 302 297 294 294 294 293 293 293 292 291 290 290 290 289 288 288 288 288 287 287 287 287 287 287 286 285 285 284 283 282 282 282 281 279 278 276 275 274 273 273 273 272 271 271 270 270 269 269 269 268 268 268 268 267 267 267 266 266 266 266 265 265 265 265 264 264 264 264 263 263 263 263 263 263 262 262
293 295 293 294 298 301 298 295 296 296 295 298 300 300 297 293 297 302 299 300 302 302 300 297 295 294 293 293 293 292 292 291 290 290 290 288 288 288 288 288 287 287 287 287 287 286 285 285 284 283 282 281 281 280 279 277 276 275 274 273 273 272 272 271 270 270 270 269 269 269 268 268 268 267 267 267 266 266 266 266 266 265 265 265 264 264 264 264 263 263 263 263 263 262 262 262 262
296 296 296 295 294 294 294 293 295 297 298 298 297 299 298 293 294 299 299 300 301 301 302 300 296 293 293 293 293 293 292 291 291 291 290 288 288 288 288 287 288 287 287 287 286 286 285 284 283 282 282 281 280 279 278 277 276 275 274 273 273 272 271 271 270 270 269 269 269 268 268 268 268 267 267 267 266 266 266 266 265 265 265 264 264 264 264 263 263 263 263 263 262 262 262 262 262
299 299 299 298 295 294 294 294 294 294 296 299 297 296 296 294 296 299 297 298 299 298 298 298 297 294 293 292 292 292 292 291 291 290 289 288 287 287 287 287 287 286 286 286 286 285 284 284 283 282 281 281 280 279 278 277 275 274 273 273 272 271 271 270 270 269 269 269 269 268 268 268 267 267 267 266 266 266 266 265 265 265 264 264 264 264 263 263 263 263 263 262 262 262 262 261 261
Wind_Speed
5 4 1 2 3 6 2 1 2 2 1 0 2 1 2 1 1 3 2 1 2 0 1 4 4 4 4 5 8 7 5 3 1 1 2 2 12 17 17 21 21 19 19 17 15 14 13 12 12 13 13 12 13 14 15 15 16 15 15 15 16 17 17 17 17 18 18 18 18 18 19 18 18 19 19 19 19 19 20 21 20 20 20 20 20 19 19 19 19 17 17 19 19 19 20 21 21
4 3 1 2 3 3 1 2 2 2 2 1 2 2 2 1 1 4 5 4 3 3 4 5 7 9 9 9 8 6 7 6 2 1 3 12 19 19 22 22 20 20 19 17 16 14 13 12 12 13 13 14 16 17 16 16 16 15 14 15 16 17 17 17 18 18 18 18 19 18 18 18 18 19 19 18 18 18 18 19 19 19 18 18 18 18 19 19 18 16 18 18 18 20 19 20 21
3 1 1 3 4 3 0 2 1 0 2 2 3 2 1 2 2 5 4 4 5 7 6 4 7 6 5 8 6 5 4 5 5 3 5 15 15 17 24 22 20 20 18 17 13 12 13 13 12 12 13 16 17 16 15 15 15 15 15 15 16 16 17 17 18 18 18 17 18 18 17 18 18 18 18 18 17 18 18 18 18 18 17 17 16 17 18 18 18 18 19 18 17 19 19 19 20
3 2 3 3 3 3 2 2 1 2 2 2 2 3 0 2 5 5 1 2 3 5 3 4 5 5 6 9 5 4 3 4 5 4 4 10 12 19 25 21 20 20 18 16 12 12 14 13 12 13 14 15 15 14 14 14 14 14 15 16 16 17 19 18 18 18 18 17 17 17 17 18 17 18 18 18 18 18 17 18 17 17 17 16 16 16 16 16 17 18 18 17 17 18 18 19 19
4 4 4 5 2 1 2 1 1 2 2 2 1 3 2 4 5 3 2 3 2 4 3 4 3 3 5 7 2 3 2 3 6 7 7 11 19 24 23 21 21 20 17 15 15 14 14 13 12 13 15 14 13 14 14 14 15 15 15 15 16 17 18 18 17 17 17 17 17 17 17 18 18 18 18 18 18 17 17 17 17 17 17 17 17 16 16 16 16 16 16 16 17 17 17 18 19
6 8 9 8 3 0 2 1 1 1 4 3 2 4 4 5 5 4 4 3 5 7 4 4 4 4 5 4 4 5 5 3 5 8 12 17 23 24 22 22 20 18 17 16 16 14 13 13 12 14 14 13 13 15 15 15 16 16 16 16 16 17 17 17 16 16 16 16 17 17 17 18 18 18 18 19 18 18 17 17 17 17 17 17 17 16 16 16 16 16 16 16 16 17 17 17 18
6 6 5 5 2 1 3 1 2 2 3 4 3 5 5 5 5 6 5 2 5 7 6 5 6 8 4 2 3 11 10 2 5 11 18 22 24 23 22 21 20 19 18 17 15 14 13 12 13 16 17 17 16 16 16 16 15 15 15 15 15 15 16 16 16 16 16 16 16 16 17 17 17 18 19 19 19 18 17 17 17 16 17 17 16 16 16 16 15 15 15 15 16 16 16 17 16
6 4 2 3 1 2 3 2 3 2 2 2 3 5 6 4 6 7 4 2 2 4 6 2 5 8 4 4 3 11 17 14 16 21 24 25 25 23 22 21 22 21 19 17 14 13 13 13 14 17 17 16 15 16 15 15 15 15 15 15 14 14 15 15 15 16 16 16 16 16 16 16 16 17 18 19 19 19 18 17 17 16 16 16 16 16 16 16 16 15 15 15 15 15 15 16 15
5 3 0 2 1 1 1 2 2 2 2 2 3 5 4 2 6 6 5 5 3 5 7 2 3 7 4 8 6 7 15 20 25 26 25 25 24 23 23 22 23 22 20 16 14 15 15 14 14 16 16 15 15 16 15 15 15 14 14 14 13 14 14 14 15 15 16 16 15 15 15 15 15 15 16 18 19 19 18 17 17 17 16 16 16 17 17 16 16 15 15 15 15 15 15 15 15
3 2 2 1 1 1 1 2 2 2 2 1 4 7 5 3 6 6 6 6 4 6 6 5 9 9 7 7 5 4 8 20 27 24 24 25 23 24 23 21 22 22 20 16 16 17 17 16 17 18 18 17 17 15 14 14 14 14 13 13 13 13 13 14 14 15 15 15 15 14 14 14 15 15 16 17 18 18 18 18 17 17 17 17 17 17 18 17 15 15 15 15 15 16 16 16 16
1 2 2 2 1 2 3 3 3 2 3 2 5 9 6 4 7 6 6 5 3 5 3 6 9 9 9 7 3 5 12 22 26 23 23 25 24 24 23 22 21 21 19 17 18 18 19 20 19 19 17 17 16 14 14 13 14 14 13 13 13 13 13 14 14 15 15 15 15 14 13 13 14 15 15 16 16 17 17 17 17 17 17 16 17 17 18 17 15 15 16 16 15 16 16 16 17
1 1 3 2 2 3 3 3 3 3 4 5 6 8 6 8 9 5 7 7 6 5 4 5 6 6 9 6 2 7 17 22 23 23 24 25 24 23 23 21 20 19 18 18 19 19 19 19 17 16 14 13 13 13 14 13 14 14 14 14 15 15 15 15 16 16 16 16 15 13 13 14 14 15 17 17 17 17 17 17 17 17 17 16 17 17 17 17 15 15 16 16 15 15 16 16 17
2 2 4 2 3 3 2 3 3 1 5 5 4 7 6 10 9 3 5 8 9 6 8 6 6 5 8 5 3 6 13 17 22 24 24 25 25 23 23 22 21 20 19 18 18 17 16 15 14 14 13 12 13 14 15 15 15 15 15 15 15 14 14 15 14 14 14 13 12 12 11 13 13 13 16 17 18 17 16 17 18 18 18 17 17 17 17 16 15 16 17 17 16 16 16 17 17
4 2 4 2 0 3 3 2 2 3 4 3 3 7 6 7 6 5 7 9 11 5 3 7 5 7 8 6 3 3 7 14 21 25 25 26 25 25 25 23 23 21 20 19 17 16 14 14 14 14 14 14 15 14 15 15 15 14 13 12 12 11 12 12 12 12 11 11 11 11 10 9 10 11 12 14 15 14 14 15 18 19 18 18 18 17 16 16 15 16 16 17 17 17 17 18 18
5 1 4 2 2 0 1 1 2 5 2 2 3 5 12 8 4 9 11 6 7 6 1 9 8 3 6 6 4 4 9 17 22 26 26 26 26 25 24 23 22 21 21 19 18 16 14 15 14 14 14 14 13 12 12 13 12 11 11 12 11 11 12 12 11 11 10 10 10 10 10 10 10 11 11 12 13 13 13 13 15 17 18 18 18 17 16 16 16 16 16 16 17 17 19 20 19
3 3 4 1 1 1 1 1 3 5 2 1 2 3 13 11 7 11 11 5 7 10 9 9 10 5 6 5 8 12 16 20 24 27 27 27 25 25 23 22 22 21 20 19 19 17 15 14 13 13 12 11 10 10 11 12 11 10 11 12 12 12 12 12 11 11 10 11 11 11 11 11 11 11 12 13 13 14 14 13 13 14 15 16 17 16 15 16 16 16 16 16 17 17 19 21 20
3 3 3 0 1 2 1 2 3 6 4 1 3 3 10 8 7 9 9 13 12 13 15 10 13 15 11 9 14 18 18 20 24 27 27 26 25 25 25 24 24 23 22 20 20 18 16 15 14 13 11 10 10 11 12 13 12 10 11 12 12 12 12 11 11 11 11 11 11 11 11 11 12 12 13 13 13 14 14 13 13 12 12 13 13 13 13 13 13 14 14 15 15 17 18 20 20
4 2 3 2 2 2 2 3 5 6 5 1 5 6 10 7 3 3 7 15 12 12 14 12 18 20 19 20 21 21 20 22 25 28 27 25 25 25 24 25 26 25 24 24 22 20 19 19 18 16 15 14 14 15 16 16 14 12 12 12 12 12 11 11 11 11 11 11 11 11 12 13 13 13 14 13 14 14 13 13 12 12 12 11 12 12 12 12 12 12 12 13 15 16 17 18 18
3 2 2 3 4 2 3 3 4 6 8 7 7 8 9 4 3 4 7 9 10 13 11 10 15 16 19 23 24 26 26 27 27 30 29 25 24 23 23 25 26 26 25 25 25 24 23 23 22 21 21 20 19 19 18 17 15 14 13 13 13 13 12 12 12 12 11 12 12 12 13 13 13 14 14 14 13 13 13 13 12 12 11 12 12 12 11 12 12 12 12 13 14 15 16 17 17
2 3 2 4 5 3 6 3 6 7 11 11 8 8 12 9 5 4 9 10 12 11 7 7 11 10 11 16 21 26 28 28 27 30 28 25 24 22 22 24 25 25 25 25 26 26 25 25 24 23 22 20 20 19 18 17 15 14 14 13 13 13 13 13 13 13 13 13 13 14 14 14 15 15 15 14 14 14 13 13 12 12 12 12 13 13 13 13 13 13 13 14 15 16 16 17 17
2 3 2 4 5 5 8 6 10 8 9 12 8 10 13 9 9 5 6 11 10 7 6 6 7 7 7 10 17 22 26 27 25 27 26 25 24 23 23 23 24 24 25 27 27 26 25 25 24 22 21 19 19 18 17 16 15 14 14 14 13 14 14 14 14 14 15 16 16 17 17 17 17 18 18 17 16 16 15 14 14 14 14 14 15 15 15 15 16 16 16 17 17 18 18 18 18
4 4 1 1 4 6 5 5 8 7 8 12 9 11 8 4 11 10 7 11 3 3 5 5 6 6 8 10 15 21 24 24 23 24 23 23 23 22 22 23 24 24 26 27 26 25 24 23 22 21 20 19 18 18 17 15 14 14 14 14 13 14 15 15 15 16 17 18 18 19 19 19 19 20 20 20 19 18 18 17 16 16 16 16 17 17 18 18 19 19 19 19 20 20 20 20 19
5 4 6 6 5 7 4 5 7 6 11 11 7 9 7 10 13 10 13 12 3 3 5 6 9 9 13 15 17 19 20 21 21 21 21 22 22 21 21 22 24 25 26 26 24 23 22 21 20 19 19 18 18 16 15 14 14 14 14 13 13 14 15 15 16 17 18 18 19 20 20 21 22 22 22 21 21 20 19 18 18 18 18 19 19 19 20 20 20 21 21 21 21 21 21 21 21
8 4 6 8 9 10 7 8 9 11 16 11 10 11 7 14 12 5 12 10 4 7 8 10 12 14 18 18 18 18 18 20 20 20 20 21 21 21 21 22 23 24 25 24 22 22 21 20 19 18 18 17 16 15 14 14 14 13 13 13 13 14 15 16 17 17 18 19 20 21 22 22 23 23 23 22 21 20 19 19 18 18 19 20 20 20 21 21 22 22 23 23 23 23 23 22 22
7 4 4 7 9 11 11 12 14 17 16 13 18 17 11 14 12 7 9 7 5 6 9 11 14 15 17 16 16 16 18 19 19 20 20 20 21 21 21 21 22 23 24 23 22 21 20 19 18 17 16 16 15 13 13 14 13 13 13 14 14 15 15 16 16 17 18 19 20 22 23 23 23 22 22 22 21 20 19 19 19 19 19 20 21 21 22 22 23 23 24 24 24 24 24 24 24
4 7 7 9 10 9 12 12 12 13 8 13 21 14 9 10 10 8 6 4 4 5 8 8 11 13 11 11 13 14 15 16 17 18 18 19 20 21 20 20 22 23 23 22 22 21 19 17 16 16 15 15 14 13 13 13 13 13 14 14 14 14 14 15 15 16 18 19 20 21 22 22 21 21 21 20 20 20 20 19 19 20 20 20 21 22 22 23 23 24 24 25 25 26 25 25 25
9 13 10 11 11 5 8 11 10 10 5 11 19 9 4 5 4 5 2 3 3 5 7 6 8 9 7 9 11 12 14 13 14 16 17 17 18 20 19 20 22 22 22 22 21 20 18 16 16 15 14 14 13 13 14 14 14 14 13 13 13 13 13 13 14 15 16 18 19 20 21 21 20 19 19 19 19 19 19 19 19 20 20 21 22 22 23 23 23 24 24 24 25 25 26 26 26
15 17 14 10 12 7 7 9 7 6 4 9 17 12 7 9 5 4 2 3 2 5 8 6 7 7 5 7 8 11 12 11 13 15 15 15 16 18 19 20 21 21 21 21 19 18 16 15 15 14 13 12 12 13 13 13 13 13 12 12 12 12 12 12 13 14 15 17 18 19 19 19 19 19 18 18 18 18 18 19 19 20 21 21 22 23 23 23 23 23 23 23 24 24 25 25 25
11 12 14 6 8 7 4 3 2 3 4 5 6 9 7 8 4 4 4 4 3 5 7 5 5 5 4 5 6 9 10 11 13 14 14 15 16 18 20 19 20 21 20 19 17 16 15 14 13 13 12 11 12 12 12 12 12 12 12 12 11 11 11 12 13 13 15 16 17 17 18 18 18 18 18 17 16 17 17 18 19 19 20 21 22 22 23 23 23 23 23 23 24 24 25 26 26
5 6 9 6 3 5 6 3 1 4 2 7 1 3 3 3 2 5 4 5 4 6 6 4 4 3 4 3 4 6 8 10 12 13 14 15 17 18 20 19 19 20 18 17 15 15 14 13 12 12 11 11 12 12 11 11 12 12 12 11 11 11 11 11 12 13 14 15 15 16 17 18 18 17 17 16 16 17 17 18 19 19 20 21 21 22 23 22 22 23 23 23 24 24 25 26 26
4 4 3 3 3 1 4 6 3 3 1 3 4 3 3 4 4 6 6 5 5 6 4 4 4 3 3 3 4 4 6 9 11 13 14 15 17 18 19 19 18 18 16 16 15 14 13 12 11 11 11 11 11 11 11 11 11 12 12 12 11 10 10 11 12 13 13 14 14 15 16 17 17 17 17 16 16 17 18 18 19 19 20 21 21 22 22 22 22 22 22 23 24 24 25 25 26
4 4 1 2 4 3 2 6 6 1 2 7 6 3 2 5 6 5 5 5 5 7 5 4 4 4 4 3 4 3 5 9 11 12 13 15 16 17 18 17 16 16 14 14 13 12 12 11 10 9 10 10 10 10 10 10 11 12 12 12 11 10 9 10 12 12 12 13 14 15 15 16 17 17 16 15 16 17 18 18 19 19 20 21 22 22 22 23 23 23 21 21 23 25 25 26 26
3 3 3 0 4 3 1 4 8 4 2 7 7 4 3 3 6 5 5 5 6 7 6 5 4 4 4 4 4 4 4 7 8 10 12 14 15 15 16 15 15 14 13 12 11 10 10 9 8 8 9 9 9 9 9 10 11 11 12 13 12 10 7 9 11 11 12 12 14 15 15 17 17 16 15 15 16 17 17 18 18 19 20 21 22 22 23 23 23 24 23 21 22 24 24 26 27
3 3 3 1 3 3 1 1 7 9 3 5 7 5 4 2 5 6 5 6 6 7 6 5 5 5 4 4 4 4 4 4 7 11 13 14 15 14 14 13 13 12 11 10 9 8 8 8 7 7 7 7 8 8 9 10 10 11 12 13 12 10 7 8 9 10 11 12 13 15 16 16 16 15 15 15 16 17 17 17 18 19 20 21 22 23 23 23 23 24 24 22 22 22 23 25 26
2 1 3 2 2 3 3 1 5 8 8 6 6 5 3 3 4 4 5 5 5 7 6 5 5 5 5 5 4 5 5 5 10 14 15 15 15 14 13 12 11 10 9 9 8 7 6 6 5 5 5 6 7 8 8 9 10 11 13 13 13 11 8 7 9 10 11 13 15 15 16 16 15 15 15 15 16 16 15 16 17 18 20 21 21 23 23 23 24 25 24 24 23 22 21 22 24
5 3 4 4 3 2 1 1 1 4 8 5 3 4 5 5 5 5 5 4 5 5 5 5 5 5 5 5 5 6 5 7 13 16 15 14 14 13 13 12 10 9 8 8 7 6 5 4 4 3 4 6 6 7 9 10 11 13 14 16 16 14 11 9 10 12 14 15 16 16 17 16 15 15 15 15 16 14 13 15 16 17 18 19 20 21 21 22 23 24 24 24 25 24 23 22 23
6 5 5 5 4 2 0 1 2 2 5 3 3 3 5 5 5 6 5 4 4 5 6 6 6 5 6 6 6 7 6 9 14 16 15 15 14 14 13 12 12 11 10 8 7 6 4 3 2 2 3 5 6 7 9 10 12 14 15 16 17 15 12 11 12 14 15 15 16 17 17 17 16 16 16 16 16 14 13 14 16 17 17 18 19 18 19 20 21 22 23 24 24 23 24 23 23
7 7 6 5 3 2 1 1 4 3 3 1 2 3 4 5 6 6 5 5 6 7 8 7 8 7 6 7 8 7 6 7 12 16 17 17 16 16 15 15 14 13 12 11 9 7 5 3 1 1 2 3 5 6 7 9 10 12 13 14 15 14 12 11 13 14 14 14 15 16 17 16 17 16 16 16 15 14 14 14 15 16 16 17 17 17 18 18 19 20 22 24 22 21 23 21 22
6 5 5 3 2 2 1 1 4 5 2 2 2 2 4 5 5 6 7 7 6 8 9 9 10 9 7 8 8 8 7 6 10 14 19 21 20 19 18 18 17 14 13 12 10 9 7 5 4 3 2 3 4 5 5 6 8 10 11 12 14 13 12 12 13 13 14 14 15 16 16 17 17 16 15 15 15 15 14 13 14 14 15 15 17 17 17 18 19 20 21 22 21 22 21 18 18
4 4 4 2 2 2 1 1 3 4 2 3 4 1 3 4 4 6 8 8 5 6 9 8 8 10 10 10 9 9 10 9 9 12 18 22 22 23 22 21 19 17 16 15 14 12 10 8 7 5 5 4 4 4 4 5 6 8 9 11 12 12 11 12 12 13 14 15 16 16 16 17 17 16 15 14 14 14 12 11 12 13 14 14 15 16 16 17 18 20 21 19 20 22 20 17 17
3 3 5 4 4 3 2 2 2 3 5 4 5 2 4 4 5 8 6 6 7 5 8 9 8 9 9 9 10 10 11 11 11 12 16 21 23 25 26 24 22 21 21 19 17 14 12 11 10 8 7 7 6 5 4 4 6 7 8 9 11 12 12 12 12 13 14 15 16 16 16 17 17 17 16 14 13 13 12 11 11 13 13 13 14 14 14 16 17 19 19 18 18 18 17 18 19
3 1 4 7 7 4 5 4 3 3 3 1 4 2 4 3 6 10 5 5 9 6 7 11 10 9 9 9 10 11 11 12 13 14 18 22 25 26 27 27 26 25 25 21 18 17 15 14 13 11 10 9 8 7 6 6 6 7 8 9 10 11 11 11 11 12 13 14 15 16 17 17 18 18 17 15 14 14 13 12 12 13 13 13 13 13 13 15 17 18 17 17 17 14 13 16 17
2 1 3 6 7 7 8 6 3 1 2 2 2 2 3 4 5 10 6 7 10 7 8 12 11 10 10 11 10 11 11 12 13 16 20 23 24 26 27 29 30 29 27 24 21 20 18 17 16 14 13 12 10 9 8 8 7 8 8 8 9 9 10 11 11 12 12 13 15 16 17 17 17 18 18 17 16 15 15 13 13 13 13 13 12 13 14 15 16 17 17 16 15 12 12 13 14
0 1 4 7 7 8 9 6 3 2 2 2 1 2 1 4 5 5 4 7 10 10 12 13 11 12 13 13 12 12 13 13 12 13 18 23 25 28 30 32 33 32 29 26 25 24 22 21 19 17 15 14 13 11 11 10 9 9 8 8 9 9 10 11 11 12 12 13 14 16 17 17 17 18 18 18 17 17 16 14 13 13 14 14 13 13 15 16 16 17 17 15 14 12 11 12 13
2 1 1 5 6 7 7 5 2 1 2 1 3 2 1 5 4 3 1 6 10 13 16 16 15 15 14 14 14 14 13 14 14 14 19 24 28 31 34 35 35 34 32 30 29 27 25 23 21 19 17 16 15 13 13 12 10 10 9 8 9 10 11 12 12 12 12 13 14 15 17 17 18 18 18 18 18 18 16 14 14 14 14 14 13 14 15 16 16 17 16 15 13 12 12 12 12
2 3 3 4 5 4 4 3 2 2 2 4 6 6 2 5 5 1 1 4 10 14 14 15 15 15 15 15 15 15 13 12 16 19 23 27 30 34 36 35 35 35 34 32 31 29 27 25 23 22 21 18 17 15 15 13 12 11 10 10 10 11 11 12 12 13 13 13 14 15 16 17 18 18 18 18 18 18 17 16 15 15 16 15 15 15 16 16 16 16 15 14 13 14 13 12 11
2 5 5 6 5 4 3 2 3 3 3 6 7 10 6 3 5 4 4 6 9 11 10 10 12 13 15 15 14 14 13 11 13 18 24 28 31 33 33 33 35 36 35 33 33 32 30 28 27 25 23 21 19 17 16 15 14 13 12 11 11 11 12 12 13 14 14 13 14 15 16 17 18 18 18 18 18 18 17 16 16 16 16 16 16 17 17 17 16 16 16 15 15 14 14 12 12
4 3 4 4 3 3 3 4 3 1 5 6 3 7 6 3 6 5 7 8 7 8 9 10 12 14 15 14 13 13 13 12 12 13 19 24 26 28 29 32 35 35 34 34 34 34 33 31 29 28 26 23 22 20 18 17 16 15 13 12 12 12 12 13 14 14 14 14 14 15 16 17 18 18 18 18 18 18 18 17 18 18 18 17 18 17 18 17 17 17 17 17 16 14 14 13 13
5 4 4 3 2 3 2 3 1 3 6 3 0 2 2 6 9 9 10 12 10 10 10 9 10 12 13 13 13 12 11 12 12 11 14 18 22 25 28 32 34 33 34 36 36 35 34 33 32 30 29 27 24 22 20 19 18 16 15 14 13 13 13 14 15 15 15 14 14 15 16 17 18 18 18 18 19 18 18 18 19 19 19 19 19 18 19 19 19 19 19 18 16 14 14 14 15
4 3 3 2 2 3 2 4 2 4 5 3 1 0 3 5 7 10 12 11 9 8 8 8 7 9 10 11 11 11 11 12 12 11 12 16 22 26 29 32 33 34 36 37 36 36 35 34 33 33 31 29 26 24 23 21 20 18 16 15 14 14 14 15 15 15 15 15 15 15 16 17 19 20 19 19 19 19 19 19 19 20 20 20 20 20 20 21 20 20 19 18 16 16 16 17 17
2 2 4 2 3 3 3 4 3 4 4 4 3 1 3 3 3 6 7 6 5 5 6 6 6 7 6 7 7 9 11 11 11 11 13 19 25 28 29 31 32 35 37 36 36 36 36 35 35 34 33 31 28 26 25 23 22 19 17 16 15 15 15 15 15 16 17 17 17 17 17 18 19 21 21 20 20 19 19 20 19 20 20 20 20 21 22 22 21 20 19 19 19 18 18 18 18
1 2 3 1 3 3 1 3 4 1 3 3 2 3 5 4 5 4 3 5 5 4 5 5 7 6 4 5 7 8 10 10 10 11 13 20 27 28 28 30 32 34 35 35 36 36 36 37 36 36 35 33 30 28 26 25 23 21 19 18 17 16 16 16 17 18 18 18 18 17 18 18 20 21 21 21 20 20 21 21 21 20 20 20 21 22 22 22 21 20 20 21 21 19 18 18 19
1 1 1 2 3 5 3 2 0 3 1 3 2 5 5 4 6 4 4 5 6 5 5 6 7 6 4 7 8 8 10 10 11 11 13 20 25 27 29 30 31 33 34 35 37 38 38 38 37 36 35 34 31 29 27 26 24 23 21 19 18 17 17 17 18 19 19 19 18 18 18 18 19 20 21 21 21 21 21 21 21 21 21 21 22 22 23 22 21 21 21 21 21 20 19 20 20
2 0 3 2 1 3 3 1 3 3 2 4 2 6 6 2 4 5 5 5 8 7 8 8 7 6 7 10 10 10 11 11 11 12 15 20 24 26 29 31 32 34 35 37 38 38 38 38 37 36 35 35 33 31 28 27 26 24 23 20 19 18 18 18 19 19 19 19 19 18 18 19 19 20 21 21 21 22 22 22 22 22 22 22 22 23 23 22 22 22 22 22 21 20 21 22 21
2 3 2 2 1 1 1 1 1 1 2 4 5 7 5 4 5 5 4 7 9 9 9 8 10 10 11 12 12 12 12 10 10 11 12 16 22 26 28 30 31 33 34 35 36 36 36 36 36 36 35 35 32 30 28 27 27 25 23 21 19 18 18 19 20 20 20 19 20 19 19 19 20 20 21 21 21 22 22 22 22 22 22 23 23 23 23 23 22 22 22 22 21 21 22 23 22
1 0 1 2 3 4 2 1 2 2 3 3 4 6 5 7 7 6 9 11 10 10 8 9 13 14 12 12 12 12 11 10 11 11 10 15 22 27 28 30 31 32 33 34 34 34 34 34 34 35 35 33 31 29 28 27 26 25 23 21 20 19 19 20 20 20 20 20 20 19 19 20 20 21 21 21 22 22 22 23 23 23 23 23 23 24 23 23 23 23 22 22 22 22 23 24 24
1 0 1 1 1 1 1 0 2 3 2 3 2 5 8 7 5 8 11 10 10 11 9 10 12 13 13 13 12 11 11 11 11 10 10 15 21 25 27 28 29 30 31 32 32 32 32 32 33 34 34 33 31 29 28 27 26 25 23 22 20 19 19 20 20 20 21 21 20 20 20 21 21 22 22 22 22 22 23 23 23 23 23 23 24 24 24 23 23 23 22 22 22 23 24 24 24
4 3 4 3 2 2 1 3 2 2 3 4 3 4 11 6 4 8 11 9 9 10 9 9 10 11 12 11 12 11 10 10 11 11 11 14 19 22 24 25 26 27 28 29 29 29 30 31 32 33 33 32 31 29 28 27 26 24 23 21 20 20 20 20 20 20 21 20 20 20 21 21 22 23 23 23 23 23 23 23 24 24 24 24 24 24 24 24 24 23 23 23 23 23 24 25 25
Wind_Direction
5 10 4 23 145 151 133 76 75 322 87 117 270 224 248 204 164 138 119 127 132 252 41 49 35 54 77 105 126 116 52 28 45 128 174 131 126 136 140 136 133 126 116 110 113 107 100 101 94 92 90 88 83 80 79 74 72 70 69 68 67 66 65 62 60 59 57 57 57 55 55 55 52 52 48 45 44 42 43 41 39 39 37 35 36 33 33 34 33 36 32 34 31 25 23 20 19
23 26 159 123 93 130 208 61 95 309 57 311 271 193 257 23 113 169 172 183 150 135 118 92 79 72 83 106 118 97 46 21 31 79 90 122 124 129 138 139 134 125 118 113 112 105 103 101 95 94 92 86 79 78 76 73 74 70 70 69 67 65 64 62 59 58 54 53 52 51 52 52 51 50 48 46 44 43 43 41 38 38 36 34 34 30 30 30 27 35 35 34 27 21 18 16 16
41 75 163 137 50 44 76 41 82 144 114 246 273 244 262 92 223 221 197 173 137 136 136 87 72 49 56 70 45 49 47 10 43 57 94 119 120 124 135 138 133 125 119 117 114 111 107 100 97 96 94 85 74 74 72 73 74 70 70 68 69 67 67 65 59 58 55 53 51 50 49 50 50 48 48 48 46 45 43 41 38 37 37 35 34 29 28 26 23 28 30 28 21 17 14 13 13
51 127 167 136 48 26 60 51 124 133 161 232 275 284 222 170 229 232 228 81 127 132 121 60 53 354 47 65 19 51 57 343 48 75 91 111 122 127 134 136 132 125 121 120 120 115 103 100 98 95 94 83 72 74 76 76 72 69 68 65 66 65 65 64 60 57 55 54 53 52 51 51 50 49 49 47 45 44 42 40 38 36 35 34 33 30 27 25 22 22 22 19 15 14 12 11 9
67 93 94 87 84 28 86 90 105 118 199 199 252 271 213 197 224 222 42 46 63 69 66 81 82 347 64 68 12 66 351 319 66 87 90 110 130 131 134 135 131 124 119 116 113 110 103 102 100 97 92 82 77 77 79 77 72 70 66 64 63 61 61 62 61 58 56 56 54 54 53 52 51 50 48 46 45 42 41 39 37 35 34 33 31 30 28 26 23 20 18 16 12 12 11 10 7
84 89 67 68 95 137 105 107 112 241 232 176 219 258 218 204 201 155 79 61 55 49 46 70 106 108 84 58 67 35 321 273 73 95 110 120 133 134 135 132 126 118 114 113 111 110 106 103 99 94 88 85 84 79 77 75 70 69 66 63 62 59 59 61 61 58 57 55 54 53 52 52 51 49 47 44 42 39 38 36 35 33 31 31 29 28 27 25 23 20 18 15 11 10 9 9 6
75 83 55 70 76 29 107 153 184 234 248 181 206 258 245 219 168 119 88 67 49 37 42 66 106 104 65 14 77 14 9 114 106 116 124 127 134 133 133 127 119 114 112 114 112 110 106 103 96 88 87 87 84 79 74 71 68 67 67 63 63 61 60 60 58 57 54 52 51 50 49 49 48 47 45 41 38 36 35 33 32 30 29 27 26 25 24 22 20 19 17 15 11 8 7 6 6
82 61 12 85 56 19 103 198 222 215 249 227 242 274 266 200 135 108 83 50 65 34 31 73 104 86 34 31 76 15 41 93 113 121 127 129 131 128 128 124 118 116 115 116 113 111 108 104 94 85 85 84 79 79 75 72 71 70 68 64 66 63 59 58 54 52 49 47 47 47 47 46 46 44 41 38 34 33 32 31 30 27 26 23 23 21 19 18 17 17 15 14 12 9 9 8 9
105 61 86 80 95 54 75 234 266 254 253 319 324 307 313 93 97 94 79 49 71 51 19 302 107 94 91 61 72 15 49 93 112 118 125 127 125 122 122 120 118 117 118 117 109 106 103 99 91 84 82 80 79 78 75 73 71 69 67 64 63 58 55 52 48 48 45 45 44 44 44 42 42 40 37 34 32 32 31 29 28 26 24 23 20 18 16 15 15 15 14 14 12 11 12 14 16
110 31 144 111 130 154 289 259 273 263 255 341 358 356 8 49 75 75 81 81 86 76 45 42 77 104 118 67 54 10 62 104 111 113 118 122 120 119 118 115 117 117 118 114 107 106 103 96 87 84 81 78 76 73 73 71 67 67 65 61 59 54 50 47 46 45 42 41 39 39 39 40 39 36 32 29 30 29 28 27 25 25 24 23 19 17 14 13 15 14 13 13 12 13 16 18 18
76 346 120 117 127 162 215 240 257 263 310 353 17 12 13 41 78 52 50 83 52 85 76 35 76 106 98 73 35 58 97 110 110 110 113 116 117 117 116 115 117 117 116 113 112 111 107 102 94 89 86 84 83 80 78 71 65 65 62 59 56 53 50 47 47 45 42 40 38 38 38 40 38 33 29 25 27 25 25 25 23 22 20 19 17 16 15 13 14 13 12 11 10 12 15 16 16
110 308 87 113 179 193 203 192 227 248 344 10 16 359 5 41 65 48 53 61 9 61 23 7 127 126 83 82 59 84 94 105 111 112 113 115 116 115 115 115 115 114 112 114 113 111 109 106 100 93 91 94 93 85 78 71 66 65 64 61 59 58 55 52 51 49 47 44 42 43 48 49 42 37 35 32 30 27 26 24 21 19 16 14 13 13 14 13 12 11 12 11 9 10 12 13 12
158 179 104 146 194 172 175 158 207 134 30 22 20 349 8 48 54 40 74 57 19 50 19 8 144 108 83 103 72 88 88 102 115 114 113 111 111 110 108 106 104 104 105 110 109 106 105 97 92 89 89 92 90 83 75 71 73 74 74 71 68 62 56 52 49 48 47 47 47 50 61 62 52 44 41 38 35 31 30 28 23 20 18 17 13 12 13 13 12 10 10 11 12 12 11 10 8
180 167 120 179 162 140 164 143 195 106 54 347 11 356 31 50 42 41 55 55 27 19 7 25 83 89 106 130 76 82 97 111 116 112 109 105 105 103 99 99 98 100 101 104 102 97 96 93 93 94 94 96 96 91 80 77 80 80 80 76 70 60 53 49 44 44 47 50 54 56 64 63 53 45 39 36 33 27 25 26 25 22 21 19 15 14 13 13 11 9 9 11 11 12 9 4 2
180 127 93 145 15 165 208 113 150 111 66 359 53 37 61 36 351 49 33 53 32 340 1 31 17 83 129 144 141 142 122 117 114 110 108 103 101 96 93 94 92 94 97 100 100 98 101 103 102 101 100 100 100 94 84 80 81 78 76 74 68 63 58 53 48 51 54 58 60 59 58 54 47 41 33 27 21 15 11 13 17 18 18 17 16 15 16 14 11 10 9 8 7 5 1 357 355
146 100 71 81 299 244 265 121 122 102 141 172 109 61 71 40 22 62 20 45 69 24 49 27 3 51 87 97 120 126 121 114 110 108 104 99 95 91 89 87 87 87 90 92 93 96 102 103 100 100 100 100 99 91 85 84 83 80 78 76 71 68 63 61 61 61 62 61 58 54 50 43 37 31 24 18 11 4 2 0 1 5 9 13 12 12 15 15 13 12 9 6 1 353 347 347 348
78 83 71 355 211 172 226 169 159 127 152 226 0 7 99 84 48 78 37 47 66 48 55 44 37 54 57 73 102 112 112 104 103 103 97 92 87 84 80 79 81 79 80 83 84 90 94 93 92 95 94 96 99 95 93 93 93 90 83 79 72 68 65 65 64 63 61 57 52 44 38 32 26 19 15 12 6 1 359 356 353 352 353 357 357 356 1 5 5 4 3 358 348 340 336 340 343
68 91 109 212 193 150 247 192 176 124 115 67 16 29 99 108 30 71 39 32 42 58 53 50 53 51 54 69 87 96 97 93 95 97 88 81 78 75 71 72 75 73 75 78 80 88 91 92 94 97 98 101 105 103 100 99 99 95 87 80 73 68 66 64 61 59 55 48 43 34 29 25 18 12 8 6 2 359 355 351 347 344 341 340 340 342 344 344 345 344 344 340 333 331 331 335 340
92 115 102 236 197 98 302 206 156 112 124 112 60 48 64 52 335 41 61 29 28 57 42 39 56 45 48 61 76 84 87 85 86 89 82 76 75 73 71 71 73 73 74 76 79 86 92 96 98 101 102 104 106 104 102 100 97 92 84 76 69 64 60 58 54 49 44 38 32 26 22 16 11 7 3 359 355 351 348 345 341 336 333 331 331 332 331 330 332 331 329 327 325 326 328 331 334
137 118 103 229 180 77 360 55 101 111 129 107 79 71 56 24 358 53 96 70 37 50 32 31 60 48 46 55 69 79 81 78 79 83 81 78 77 76 76 74 75 75 76 80 84 87 91 95 99 102 103 103 104 101 100 95 90 85 76 68 59 53 48 45 41 35 29 24 18 14 10 6 3 1 359 356 351 348 346 343 336 332 329 328 327 326 325 325 324 323 323 322 322 323 326 327 327
116 84 147 198 150 77 16 53 90 93 106 99 101 85 68 37 30 35 114 84 39 28 16 31 72 71 68 63 68 77 78 77 76 79 81 81 80 79 80 80 81 82 84 87 88 89 91 94 97 100 101 101 100 97 94 88 83 78 68 58 49 41 34 29 26 21 16 11 7 4 2 0 358 357 358 357 355 353 349 345 340 336 333 330 329 327 327 326 324 324 324 324 324 325 326 326 324
85 44 45 141 120 99 31 43 75 83 95 89 86 73 81 81 41 27 73 90 62 349 360 32 70 75 83 80 78 77 76 76 75 77 80 82 83 84 84 86 87 88 90 89 88 90 93 96 97 98 98 97 93 89 87 81 74 66 57 48 40 32 24 18 16 12 8 4 2 360 357 357 355 355 356 356 356 354 351 348 345 341 337 335 334 332 330 329 327 326 326 325 325 325 324 324 324
93 29 17 27 67 101 80 49 59 80 86 74 79 84 101 97 64 33 64 79 75 30 24 56 69 78 86 83 80 77 76 78 76 77 82 85 87 88 89 89 89 90 92 90 91 93 94 96 97 96 95 90 86 82 78 71 62 55 48 40 32 26 18 12 11 8 4 1 360 358 357 356 354 354 353 354 354 352 349 347 344 341 337 337 336 334 331 330 329 327 326 325 324 323 323 323 322
89 64 31 45 61 81 81 78 80 80 81 80 91 89 78 88 86 47 62 66 50 54 54 69 77 79 81 78 76 78 80 81 81 83 86 89 92 93 94 93 93 95 95 93 94 96 95 95 95 93 90 85 80 75 68 62 54 49 42 35 29 23 15 13 10 4 1 360 358 356 356 355 353 353 352 352 351 349 347 344 341 338 336 336 335 334 331 329 328 327 326 325 325 323 323 323 321
80 103 84 75 70 83 91 89 89 84 88 93 83 78 74 89 97 75 64 60 41 60 65 72 78 75 73 74 76 81 83 84 87 89 90 94 98 99 98 97 98 98 96 95 96 96 95 95 94 90 85 80 75 68 63 56 49 44 37 32 28 21 15 13 5 359 359 357 355 354 354 353 352 352 351 350 348 347 345 342 339 336 336 334 332 333 332 331 329 327 326 324 324 323 322 323 321
90 110 108 103 96 102 102 90 87 87 96 95 84 82 87 95 94 66 53 61 52 66 68 66 75 71 66 71 76 82 85 88 91 93 94 97 101 100 99 99 100 98 97 98 98 96 95 95 91 86 81 76 72 65 60 53 46 41 36 31 25 21 15 8 1 357 356 352 352 351 350 351 350 349 349 347 345 345 343 340 338 337 336 334 333 333 334 333 330 328 326 324 323 321 321 321 320
107 104 91 94 97 92 92 93 96 83 61 89 94 94 48 37 76 80 73 92 80 78 66 51 71 72 68 71 73 80 84 90 98 101 99 98 100 101 101 103 102 102 103 101 99 98 96 93 88 83 78 73 69 64 59 54 47 42 37 30 23 19 13 4 359 355 352 350 349 347 347 348 348 346 346 344 342 343 341 340 340 338 336 336 335 333 332 332 329 328 327 325 323 321 319 319 318
114 106 83 73 89 85 75 100 122 88 72 100 98 93 44 13 52 115 150 108 103 96 79 57 69 73 71 73 72 78 83 93 105 105 101 100 103 106 106 107 107 108 106 104 103 102 98 92 87 81 75 70 65 61 58 55 50 44 37 30 24 17 10 2 357 353 351 349 346 346 347 348 347 346 346 344 342 342 341 340 339 339 339 340 339 336 333 330 327 326 324 323 321 320 318 317 317
118 103 97 105 97 84 37 107 170 77 147 182 91 70 28 10 64 134 127 124 136 95 87 69 72 77 76 80 80 81 88 100 105 103 106 111 112 112 110 111 113 111 108 107 107 103 97 91 87 80 73 67 62 60 57 55 51 45 37 29 24 15 8 1 356 354 350 347 345 347 348 349 349 348 347 347 345 344 342 341 340 341 342 342 342 339 335 332 330 327 326 325 324 324 322 321 321
102 75 108 146 93 27 350 342 325 64 153 241 198 65 345 333 149 162 148 150 139 91 88 88 88 95 91 94 93 88 97 104 107 110 118 121 120 118 116 116 116 114 113 112 108 102 97 92 87 80 72 65 61 59 54 52 47 42 36 29 22 13 7 0 357 354 349 347 347 348 350 350 350 349 350 348 346 347 346 344 343 344 344 344 344 342 340 338 335 334 334 332 330 331 329 328 327
91 76 91 118 109 21 9 10 6 95 340 314 120 127 253 228 203 186 171 172 150 111 112 126 125 131 117 118 113 101 104 112 118 123 128 128 127 125 122 121 120 119 119 114 110 106 101 95 89 82 74 65 61 57 51 47 40 37 33 29 23 12 4 358 357 355 349 348 348 351 352 350 350 350 351 348 347 347 346 346 346 345 343 343 344 346 345 342 340 340 341 338 335 335 333 332 332
70 109 239 23 114 190 1 26 26 95 288 21 72 140 234 224 212 190 159 158 154 130 144 167 155 154 144 140 130 124 124 124 129 132 136 137 134 132 129 128 126 123 121 116 114 112 106 100 92 84 77 68 61 55 48 43 36 33 30 27 23 12 4 356 356 353 347 347 349 352 352 349 347 348 349 348 347 346 345 346 345 343 342 342 343 346 347 346 345 343 343 344 340 338 337 335 335
359 95 184 202 123 167 318 36 24 355 256 15 27 149 176 247 200 171 139 150 154 138 162 183 170 172 162 160 155 150 148 139 144 146 147 147 144 142 138 135 133 129 126 123 121 117 110 104 94 82 74 63 56 50 43 38 31 28 26 24 21 16 6 356 353 346 341 344 345 347 347 343 341 341 343 342 343 344 343 343 341 340 339 341 342 344 346 347 347 344 343 344 343 342 340 338 337
306 44 103 96 118 137 43 14 6 12 67 41 30 116 159 225 164 156 157 161 156 151 174 185 178 188 179 176 176 174 175 167 170 164 157 156 154 152 149 144 141 137 134 132 128 122 114 105 93 77 67 55 48 41 34 30 25 23 23 22 19 17 10 356 348 339 339 341 339 342 342 338 336 337 337 336 337 339 340 338 337 336 336 338 340 342 344 345 346 347 343 341 343 343 342 342 339
178 114 117 110 76 87 68 347 333 16 61 72 63 97 152 183 164 173 180 176 169 168 181 188 189 194 190 190 192 191 192 197 189 175 166 165 162 160 158 154 151 148 144 142 137 130 121 109 95 77 62 48 38 29 22 18 15 14 16 20 19 16 11 359 344 337 338 336 337 341 340 337 337 336 335 334 335 337 338 335 333 333 333 334 337 340 342 344 344 346 345 340 340 340 340 343 340
146 147 116 122 95 54 54 129 315 50 65 48 60 124 168 182 197 203 196 194 186 182 184 192 199 202 201 200 203 203 204 209 196 182 177 176 173 171 169 168 166 162 161 157 154 149 138 121 97 72 50 37 24 15 10 7 7 10 12 15 16 14 6 356 341 334 334 335 337 339 338 338 337 336 334 334 338 341 339 333 329 330 330 332 336 339 341 343 343 343 344 341 339 337 337 341 341
109 101 83 92 103 82 261 197 289 44 82 4 11 125 176 193 211 215 201 193 192 189 191 204 209 206 209 207 211 211 212 215 200 189 189 188 187 187 184 184 182 180 180 180 178 171 160 142 103 59 32 20 9 6 6 6 7 12 14 13 13 10 1 350 339 332 332 334 335 335 337 338 336 335 332 334 338 341 337 329 327 328 329 331 334 338 338 340 340 341 341 339 340 338 335 341 341
83 98 99 70 82 142 185 200 308 352 98 54 55 126 206 222 223 223 196 192 206 199 195 208 211 210 215 211 215 216 218 220 205 199 199 196 196 197 198 199 197 195 193 193 193 188 184 182 174 349 359 353 353 360 2 5 8 12 14 11 9 7 360 348 337 333 331 331 333 335 340 339 338 336 330 330 333 335 333 326 325 325 327 329 329 332 334 336 338 339 341 340 341 337 334 338 340
78 91 106 79 81 142 222 318 356 11 92 174 166 162 247 248 238 230 208 205 217 207 202 206 204 208 215 214 215 215 217 218 209 208 204 201 202 203 205 207 208 209 205 202 202 200 201 207 222 248 283 307 324 341 348 358 4 6 6 4 2 1 358 346 336 332 328 330 335 338 341 340 340 338 330 326 327 331 332 324 322 321 324 327 326 330 332 335 337 339 343 342 339 336 333 336 340
79 96 98 119 163 144 225 272 22 24 63 140 148 96 282 260 263 248 219 216 237 223 216 218 208 207 211 213 212 209 213 213 211 214 209 206 206 206 209 211 212 214 214 210 208 209 213 221 231 241 256 274 286 307 324 340 349 350 350 352 353 353 352 345 338 332 326 328 332 333 336 337 338 336 329 322 323 330 330 321 319 319 321 324 325 328 330 334 336 337 342 341 338 336 333 332 334
21 101 112 139 193 190 179 171 116 49 34 97 124 33 294 228 231 250 226 212 242 236 221 232 229 221 219 218 217 213 213 212 210 213 212 210 209 210 212 214 216 216 217 216 215 218 223 228 234 240 247 254 261 275 292 310 323 324 325 335 342 343 346 345 339 333 325 323 324 326 329 330 331 333 329 320 317 323 323 317 316 316 317 321 324 322 322 330 332 335 340 337 336 336 329 327 328
9 257 163 165 184 166 123 124 108 48 0 202 133 43 292 250 226 242 225 206 235 228 218 232 230 224 225 223 221 219 218 218 216 216 214 212 213 214 215 216 218 219 221 222 222 226 230 232 234 237 242 244 249 258 266 280 292 295 305 324 334 334 335 338 337 331 323 317 316 318 320 322 324 327 328 324 317 316 318 316 313 313 313 318 321 311 312 324 327 331 336 332 333 333 326 324 324
48 256 145 139 142 136 142 145 112 73 256 231 113 126 268 305 257 239 217 215 237 233 228 234 228 221 221 222 221 218 218 220 221 222 219 216 215 215 216 218 218 221 225 226 226 229 230 233 234 235 240 241 244 249 254 265 275 282 295 314 323 322 319 324 329 327 321 315 312 311 313 315 317 321 324 326 321 316 317 314 311 312 311 317 318 305 309 322 323 327 331 328 328 327 324 321 317
53 284 109 130 136 146 163 155 125 163 150 67 67 140 267 285 266 256 204 213 243 245 239 238 229 224 221 222 222 217 217 216 217 222 221 220 218 217 218 220 221 225 229 228 228 230 231 233 234 235 238 239 241 244 248 258 265 272 283 296 305 308 308 315 323 324 323 316 310 308 308 310 312 315 320 323 322 320 319 313 310 311 310 315 315 304 311 319 320 324 326 325 323 320 320 315 309
263 240 129 161 153 152 155 136 115 109 73 12 239 191 293 266 266 340 150 213 246 245 238 234 227 224 222 223 223 219 219 216 216 219 221 221 221 221 222 223 225 228 231 231 231 233 233 233 233 234 235 237 240 241 246 254 258 262 269 279 292 299 302 309 315 318 319 314 309 307 305 305 307 310 313 317 320 320 320 315 311 310 309 313 311 306 312 316 318 322 322 321 318 313 312 308 304
224 128 71 87 90 87 103 116 111 49 14 256 220 176 189 274 262 346 100 225 244 241 238 233 225 222 221 223 223 220 220 218 218 221 223 223 223 224 225 226 228 230 232 234 234 233 233 232 230 231 235 237 239 241 244 249 251 254 259 269 282 291 296 301 304 308 314 312 308 306 303 302 302 303 306 310 314 316 317 313 309 306 306 309 307 306 311 313 316 318 317 315 310 306 307 303 298
138 96 64 68 55 47 63 65 84 65 287 262 216 177 168 293 265 211 190 214 224 226 236 235 224 222 221 221 222 219 218 218 219 222 225 227 227 228 228 227 229 232 233 233 232 232 231 230 229 231 235 237 238 241 243 246 247 249 255 265 276 284 290 292 295 301 307 306 303 303 301 297 296 298 300 304 309 313 312 309 304 303 304 304 302 304 308 310 312 312 311 309 305 302 300 297 294
104 74 68 80 24 16 25 358 45 132 255 272 236 170 158 245 258 231 219 231 222 209 223 226 219 219 219 218 218 217 216 217 218 220 225 227 228 229 227 228 230 231 232 231 230 230 229 229 229 230 234 235 236 240 241 243 244 246 253 261 269 277 281 284 288 293 297 298 299 301 298 293 291 293 297 300 304 308 308 304 301 301 302 301 300 302 304 306 308 307 306 305 302 298 294 292 290
73 58 70 80 359 9 343 307 314 220 245 275 3 125 175 240 252 249 237 237 230 215 219 223 216 217 219 217 216 216 214 216 218 218 223 223 224 226 225 227 229 229 230 231 230 228 228 229 228 229 234 235 235 238 240 242 244 246 252 258 265 271 275 279 283 286 291 294 298 300 295 291 289 290 292 295 300 303 302 301 299 298 300 300 299 300 301 303 304 304 304 303 299 294 290 288 288
44 83 90 78 64 47 289 271 288 262 262 288 332 354 268 270 268 250 235 234 236 232 232 231 224 221 222 220 217 217 215 215 218 218 221 222 222 224 224 226 227 227 229 230 229 228 227 227 227 229 234 236 235 237 239 241 244 248 252 257 263 268 272 277 281 286 290 293 297 298 295 291 288 288 290 292 296 299 298 297 296 296 298 297 297 298 300 302 302 301 300 299 296 292 288 287 287
14 138 108 96 146 145 241 238 225 260 280 300 317 284 217 228 267 244 238 256 268 258 247 243 245 238 232 233 225 221 221 218 218 220 222 225 225 225 225 226 227 227 229 229 228 227 225 226 228 229 233 235 234 236 238 240 244 248 251 254 260 266 271 276 282 287 290 291 293 294 292 291 288 287 289 291 294 296 296 295 294 295 296 295 295 297 299 300 299 297 296 296 295 294 291 288 288
338 137 90 39 181 146 168 206 188 213 320 303 279 240 216 219 261 264 287 297 287 273 266 257 253 247 236 239 231 224 227 224 221 222 225 227 228 227 227 227 228 229 229 229 228 227 225 227 229 230 234 236 236 236 238 241 245 247 248 252 258 264 269 275 282 286 286 286 288 288 288 288 286 285 285 288 292 295 295 294 294 294 294 293 293 296 298 298 295 293 294 296 296 294 291 288 288
30 52 197 234 173 119 102 252 306 65 321 283 272 262 285 322 289 297 7 311 285 278 265 247 245 244 234 238 234 225 226 225 222 221 225 228 228 229 229 229 229 229 228 228 229 229 229 229 230 231 234 235 236 237 238 241 243 243 245 250 256 262 268 276 283 284 282 282 282 283 284 284 283 283 284 287 292 294 294 293 292 292 291 290 292 295 297 295 292 291 293 294 293 292 289 287 287
91 323 225 207 102 80 90 294 346 34 248 272 290 267 285 330 285 316 2 302 271 255 243 243 247 243 237 240 236 228 227 225 226 226 228 230 230 230 231 230 230 230 229 230 232 232 232 232 232 233 233 234 235 237 238 241 241 241 244 248 255 264 272 279 281 279 277 277 278 279 281 281 283 284 285 288 291 292 292 290 289 288 288 288 291 295 295 291 288 289 291 290 289 289 287 287 287
134 207 196 113 117 283 53 142 285 325 271 279 297 291 275 204 229 282 277 249 251 247 234 234 238 232 231 238 238 234 232 228 228 230 229 230 231 231 231 231 232 231 231 233 234 233 232 233 234 234 235 236 237 238 239 240 240 241 243 249 259 267 274 276 275 272 272 272 275 279 280 281 285 287 287 288 290 291 290 288 285 284 284 287 291 294 291 287 286 288 287 286 285 286 286 286 287
62 309 4 50 139 183 195 153 177 208 260 274 309 319 280 218 205 222 231 231 233 236 227 224 231 229 226 231 235 233 230 228 228 227 227 229 230 231 232 231 231 231 232 233 232 231 232 234 234 234 234 235 236 237 239 240 239 240 243 252 262 268 271 271 268 268 268 271 275 279 281 285 288 288 287 288 288 289 287 284 282 280 282 286 291 291 288 284 285 285 283 282 284 286 286 286 286
136 199 273 301 108 155 232 240 146 144 186 232 284 301 273 250 190 202 227 230 221 219 218 222 230 231 228 228 231 232 228 228 230 228 228 230 231 233 233 232 232 232 231 230 230 231 234 234 233 233 232 231 233 236 238 239 238 239 245 254 262 266 267 266 265 265 266 270 275 280 285 289 289 288 288 288 288 287 284 280 277 277 280 286 290 288 284 282 282 282 280 281 284 286 286 286 286
153 181 202 193 163 132 138 288 293 109 164 196 173 268 275 269 167 205 227 228 226 221 217 230 236 234 234 232 230 230 229 229 230 229 230 230 232 233 232 231 229 227 226 227 229 232 233 233 233 232 230 230 233 236 238 238 237 239 247 256 261 264 264 262 263 264 266 271 277 283 289 289 287 287 288 288 287 286 282 276 273 275 280 286 288 285 281 279 278 278 278 280 284 286 286 285 283